EW7034 Weather Reports


time (UTC)temp
F
wind
direction
speed
knots
gust
knots
rain 1hr
in
rain 24hr
in
rain mn
in
humidity
%
barometer
mb
20260506044505 35 0.0 0.0 0.00 0.00 0.00 92 1015.4
20260506043016 35 0.0 0.0 0.00 0.00 0.00 92 1015.4
20260506041512 36 0.0 0.0 0.00 0.00 0.00 92 1015.4
20260506040015 36 0.0 0.0 0.00 0.00 0.00 92 1015.5
20260506034513 37 0.0 0.0 0.00 0.00 0.00 92 1015.5
20260506033008 37 0.0 0.0 0.00 0.00 0.00 92 1015.7
20260506031510 38 0.0 0.0 0.00 0.00 0.00 93 1015.8
20260506030011 38 0.0 0.0 0.00 0.00 0.00 93 1015.9
20260506024524 38 0.0 0.0 0.00 0.00 0.00 93 1016.0
20260506023012 38 0.0 0.0 0.00 0.00 0.00 93 1016.0
20260506021516 37 0.0 0.0 0.00 0.00 0.00 93 1016.0
20260506020009 37 0.0 0.0 0.00 0.00 0.00 93 1016.1
20260506014524 37 0.0 0.0 0.00 0.00 0.00 93 1016.3
20260506013024 36 0.0 0.0 0.00 0.00 0.00 92 1016.3
20260506011531 36 0.0 0.0 0.00 0.00 0.00 92 1016.5
20260506010013 36 0.0 0.0 0.00 0.00 0.00 91 1016.5
20260506004508 37 0.0 0.0 0.00 0.00 0.00 91 1016.5
20260506003009 37 0.0 0.0 0.00 0.00 0.00 91 1016.7
20260506001507 37 0.0 0.0 0.00 0.00 0.00 91 1016.6
20260506000010 38 0.0 0.0 0.00 0.00 0.00 90 1016.8
20260505234512 38 0.0 0.0 0.00 0.00 0.00 90 1016.9
20260505233010 39 0.0 0.0 0.00 0.00 0.00 90 1016.8
20260505231507 39 0.0 0.0 0.00 0.00 0.00 89 1016.9
20260505230010 40 0.0 0.0 0.00 0.00 0.00 89 1016.8
20260505224524 41 0.0 0.0 0.00 0.00 0.00 90 1016.9
20260505223018 41 0.0 0.0 0.00 0.00 0.00 89 1016.9
20260505221524 41 0.0 0.0 0.00 0.00 0.00 89 1016.8
20260505220023 41 0.0 0.0 0.00 0.00 0.00 89 1016.9
20260505214531 41 0.0 0.0 0.00 0.00 0.00 89 1016.8
20260505213017 41 0.0 0.0 0.00 0.00 0.00 88 1016.8
20260505211534 41 0.0 0.0 0.00 0.00 0.00 87 1017.0
20260505210023 42 0.0 0.0 0.00 0.00 0.00 86 1017.0
20260505204525 43 0.0 0.0 0.00 0.00 0.00 85 1016.9
20260505203041 44 0.0 0.0 0.00 0.00 0.00 84 1016.9
20260505201516 45 0.0 0.0 0.00 0.00 0.00 84 1016.8
20260505200022 46 0.0 0.0 0.00 0.00 0.00 84 1016.6
20260505194524 47 0.0 0.0 0.00 0.00 0.00 82 1016.7
20260505193026 48 0.0 0.0 0.00 0.00 0.00 80 1016.5
20260505191527 49 0.0 0.0 0.00 0.00 0.00 79 1016.4
20260505190019 50 0.0 0.0 0.00 0.00 0.00 75 1016.4
20260505184503 51 0.0 0.0 0.00 0.00 0.00 74 1016.4
20260505183004 51 0.0 0.0 0.00 0.00 0.00 75 1016.4
20260505181504 51 0.0 0.0 0.00 0.00 0.00 73 1016.4
20260505180004 50 0.0 0.0 0.00 0.00 0.00 73 1016.3
20260505174507 51 0.0 0.0 0.00 0.00 0.00 73 1016.4
20260505173003 50 0.0 0.0 0.00 0.00 0.00 73 1016.4
20260505171506 51 0.0 0.0 0.00 0.00 0.00 72 1016.6
20260505170007 51 0.0 0.0 0.00 0.00 0.00 75 1016.5
20260505164507 51 0.0 0.0 0.00 0.00 0.00 74 1016.6
20260505163004 51 0.0 0.0 0.00 0.00 0.00 75 1016.6
20260505161504 50 0.0 0.0 0.00 0.00 0.00 78 1016.8
20260505153021 51 0.0 0.0 0.00 0.00 0.00 76 1016.9
20260505151532 51 0.0 0.0 0.00 0.00 0.00 75 1016.8
20260505123014 50 0.0 0.0 0.00 0.00 0.00 76 1017.1
20260505121520 51 0.0 0.0 0.00 0.00 0.00 76 1017.0
20260505120027 51 0.0 0.0 0.00 0.00 0.00 73 1017.1
20260505114524 52 0.0 0.0 0.00 0.00 0.00 70 1017.0
20260505113002 52 0.0 0.0 0.00 0.00 0.00 70 1017.1
20260505111502 52 0.0 0.0 0.00 0.00 0.00 69 1017.1
20260505101503 50 0.0 0.0 0.00 0.00 0.00 75 1017.4
20260505100002 50 0.0 0.0 0.00 0.00 0.00 75 1017.5
20260505094501 49 0.0 0.0 0.00 0.00 0.00 76 1017.4
20260505093002 49 0.0 0.0 0.00 0.00 0.00 79 1017.4
20260505091503 50 0.0 0.0 0.00 0.00 0.00 78 1017.4
20260505090005 49 0.0 0.0 0.00 0.00 0.00 78 1017.3
20260505084527 49 0.0 0.0 0.00 0.00 0.00 78 1017.4
20260505083005 49 0.0 0.0 0.00 0.00 0.00 78 1017.4
20260505081508 49 0.0 0.0 0.00 0.00 0.00 77 1017.4
20260505080024 49 0.0 0.0 0.00 0.00 0.00 76 1017.3
20260505074515 49 0.0 0.0 0.00 0.00 0.00 78 1017.3
20260505073023 49 0.0 0.0 0.00 0.00 0.00 81 1017.3
20260505071507 48 0.0 0.0 0.00 0.00 0.00 83 1017.3
20260505070020 47 0.0 0.0 0.00 0.00 0.00 83 1017.2
20260505064515 47 0.0 0.0 0.00 0.00 0.00 85 1017.3
20260505063022 46 0.0 0.0 0.00 0.00 0.00 86 1017.4
20260505061524 46 0.0 0.0 0.00 0.00 0.00 86 1017.3
20260505060008 46 0.0 0.0 0.00 0.00 0.00 87 1017.2
20260505054516 46 0.0 0.0 0.00 0.00 0.00 87 1017.1
20260505053023 46 0.0 0.0 0.00 0.00 0.00 87 1017.1